Tracking 25656 objects as of 21-May-2022
HD Live streaming from Space Station
objects crossing your sky now

SCOUT G-1 DEB

Track SCOUT G-1 DEB now!
10-day predictions


NORAD ID: 28672
Int'l Code: 1988-074H
Perigee: 990.3 km
Apogee: 1,130.1 km
Inclination: 90.0 °
Period: 106.3 minutes
Semi major axis: 7431 km
RCS: 0.0099 m2 (small)
Launch date: August 25, 1988
Source: United States (US)
Launch site: AIR FORCE WESTERN TEST RANGE (AFWTR)

Note: This is SATELLITE DEBRIS
aabbcc
Your satellite tracking list
Your tracking list is empty




NASA's NSSDC Master Catalog

Two Line Element Set (TLE):
1 28672U 88074H   22138.93943603  .00001161  00000-0  16206-2 0  9991
2 28672  89.9836  11.3604 0094062  10.5290  52.3651 13.55237634429245
Source of the keplerian elements: AFSPC